Time,TemperatureF,DewpointF,PressureIn,WindDirection,WindDirectionDegrees,WindSpeedMPH,WindSpeedGustMPH,Humidity,HourlyPrecipIn,Conditions,Clouds,dailyrainin,SoftwareType,DateUTC
2013-04-03 00:03:00,39.0,14.0,30.26,NW,306,1.0,3.0,36,0.00,,,0.00,,2013-04-03 04:03:00,
2013-04-03 00:12:00,39.0,14.0,30.26,NW,306,1.0,3.0,36,0.00,,,0.00,,2013-04-03 04:12:00,
2013-04-03 00:23:00,39.0,14.0,30.26,NW,306,1.0,3.0,36,0.00,,,0.00,,2013-04-03 04:23:00,
2013-04-03 00:33:00,39.0,14.0,30.25,NW,307,2.0,3.0,36,0.00,,,0.00,,2013-04-03 04:33:00,
2013-04-03 00:42:00,39.0,14.0,30.25,NW,307,2.0,3.0,36,0.00,,,0.00,,2013-04-03 04:42:00,
2013-04-03 00:53:00,38.0,14.0,30.25,NW,306,0.0,1.0,37,0.00,,,0.00,,2013-04-03 04:53:00,
2013-04-03 01:02:00,38.0,15.0,30.25,NW,307,1.0,2.0,38,0.00,,,0.00,,2013-04-03 05:02:00,
2013-04-03 01:12:00,38.0,15.0,30.25,NW,307,1.0,2.0,38,0.00,,,0.00,,2013-04-03 05:12:00,
2013-04-03 01:22:00,38.0,15.0,30.25,NW,307,2.0,2.0,38,0.00,,,0.00,,2013-04-03 05:22:00,
2013-04-03 01:32:00,38.0,15.0,30.26,NW,319,3.0,4.0,39,0.00,,,0.00,,2013-04-03 05:32:00,
2013-04-03 01:42:00,38.0,15.0,30.26,NW,319,3.0,4.0,39,0.00,,,0.00,,2013-04-03 05:42:00,
2013-04-03 01:52:00,38.0,15.0,30.26,NW,319,2.0,3.0,39,0.00,,,0.00,,2013-04-03 05:52:00,
2013-04-03 02:02:00,37.0,15.0,30.26,NNW,344,2.0,5.0,40,0.00,,,0.00,,2013-04-03 06:02:00,
2013-04-03 02:12:00,37.0,15.0,30.26,NNW,344,2.0,5.0,40,0.00,,,0.00,,2013-04-03 06:12:00,
2013-04-03 02:22:00,37.0,15.0,30.26,NNW,346,3.0,4.0,40,0.00,,,0.00,,2013-04-03 06:22:00,
2013-04-03 02:32:00,37.0,15.0,30.27,NNW,345,4.0,5.0,40,0.00,,,0.00,,2013-04-03 06:32:00,
2013-04-03 02:42:00,37.0,15.0,30.27,NNW,345,4.0,5.0,40,0.00,,,0.00,,2013-04-03 06:42:00,
2013-04-03 02:52:00,36.0,15.0,30.26,NNW,347,4.0,5.0,41,0.00,,,0.00,,2013-04-03 06:52:00,
2013-04-03 03:02:00,35.0,14.0,30.26,North,355,3.0,5.0,42,0.00,,,0.00,,2013-04-03 07:02:00,
2013-04-03 03:12:00,35.0,14.0,30.26,North,355,3.0,5.0,42,0.00,,,0.00,,2013-04-03 07:12:00,
2013-04-03 03:23:00,35.0,18.0,30.27,North,355,3.0,3.0,49,0.00,,,0.00,,2013-04-03 07:23:00,
2013-04-03 03:32:00,35.0,19.0,30.27,North,11,1.0,4.0,51,0.00,,,0.00,,2013-04-03 07:32:00,
2013-04-03 03:42:00,35.0,19.0,30.27,North,11,1.0,4.0,51,0.00,,,0.00,,2013-04-03 07:42:00,
2013-04-03 03:53:00,34.0,15.0,30.27,NE,38,0.0,2.0,46,0.00,,,0.00,,2013-04-03 07:53:00,
2013-04-03 04:02:00,33.0,15.0,30.28,NNE,15,0.0,2.0,46,0.00,,,0.00,,2013-04-03 08:02:00,
2013-04-03 04:12:00,33.0,15.0,30.28,NNE,15,0.0,2.0,46,0.00,,,0.00,,2013-04-03 08:12:00,
2013-04-03 04:22:00,32.0,15.0,30.27,NE,42,1.0,2.0,48,0.00,,,0.00,,2013-04-03 08:22:00,
2013-04-03 04:32:00,32.0,15.0,30.27,NNE,21,0.0,3.0,48,0.00,,,0.00,,2013-04-03 08:32:00,
2013-04-03 04:42:00,32.0,15.0,30.27,NNE,21,0.0,3.0,48,0.00,,,0.00,,2013-04-03 08:42:00,
2013-04-03 04:52:00,32.0,15.0,30.27,NE,51,1.0,3.0,49,0.00,,,0.00,,2013-04-03 08:52:00,
2013-04-03 05:02:00,31.0,14.0,30.27,NE,51,0.0,2.0,48,0.00,,,0.00,,2013-04-03 09:02:00,
2013-04-03 05:12:00,31.0,14.0,30.27,NE,51,0.0,2.0,48,0.00,,,0.00,,2013-04-03 09:12:00,
2013-04-03 05:22:00,31.0,14.0,30.27,NE,47,0.0,1.0,48,0.00,,,0.00,,2013-04-03 09:22:00,
2013-04-03 05:33:00,31.0,14.0,30.28,NNE,22,0.0,3.0,48,0.00,,,0.00,,2013-04-03 09:33:00,
2013-04-03 05:43:00,31.0,14.0,30.28,NNE,22,0.0,3.0,48,0.00,,,0.00,,2013-04-03 09:43:00,
2013-04-03 05:53:00,31.0,14.0,30.28,NE,42,0.0,0.0,48,0.00,,,0.00,,2013-04-03 09:53:00,
2013-04-03 06:03:00,30.0,13.0,30.28,NE,43,0.0,0.0,49,0.00,,,0.00,,2013-04-03 10:03:00,
2013-04-03 06:12:00,30.0,13.0,30.28,NE,43,0.0,0.0,49,0.00,,,0.00,,2013-04-03 10:12:00,
2013-04-03 06:22:00,30.0,14.0,30.28,NE,35,0.0,2.0,50,0.00,,,0.00,,2013-04-03 10:22:00,
2013-04-03 06:33:00,30.0,13.0,30.28,NNE,20,0.0,1.0,49,0.00,,,0.00,,2013-04-03 10:33:00,
2013-04-03 06:42:00,30.0,13.0,30.28,NNE,20,0.0,1.0,49,0.00,,,0.00,,2013-04-03 10:42:00,
2013-04-03 06:53:00,30.0,13.0,30.28,NE,38,0.0,2.0,48,0.00,,,0.00,,2013-04-03 10:53:00,
2013-04-03 07:02:00,30.0,12.0,30.29,NE,45,0.0,2.0,47,0.00,,,0.00,,2013-04-03 11:02:00,
2013-04-03 07:12:00,30.0,12.0,30.29,NE,45,0.0,2.0,47,0.00,,,0.00,,2013-04-03 11:12:00,
2013-04-03 07:22:00,30.0,12.0,30.28,ENE,64,0.0,1.0,47,0.00,,,0.00,,2013-04-03 11:22:00,
2013-04-03 07:32:00,29.0,12.0,30.31,ENE,63,0.0,1.0,48,0.00,,,0.00,,2013-04-03 11:32:00,
2013-04-03 07:42:00,29.0,12.0,30.31,ENE,63,0.0,1.0,48,0.00,,,0.00,,2013-04-03 11:42:00,
2013-04-03 07:53:00,30.0,12.0,30.31,ENE,77,1.0,1.0,47,0.00,,,0.00,,2013-04-03 11:53:00,
2013-04-03 08:02:00,30.0,12.0,30.31,NE,48,0.0,2.0,47,0.00,,,0.00,,2013-04-03 12:02:00,
2013-04-03 08:12:00,30.0,12.0,30.31,NE,48,0.0,2.0,47,0.00,,,0.00,,2013-04-03 12:12:00,
2013-04-03 08:22:00,31.0,14.0,30.31,NE,37,1.0,3.0,48,0.00,,,0.00,,2013-04-03 12:22:00,
2013-04-03 08:32:00,32.0,14.0,30.33,NNE,32,0.0,2.0,46,0.00,,,0.00,,2013-04-03 12:32:00,
2013-04-03 08:42:00,32.0,14.0,30.33,NNE,32,0.0,2.0,46,0.00,,,0.00,,2013-04-03 12:42:00,
2013-04-03 08:52:00,34.0,14.0,30.35,ENE,67,0.0,3.0,43,0.00,,,0.00,,2013-04-03 12:52:00,
2013-04-03 09:02:00,35.0,15.0,30.36,NE,48,0.0,3.0,44,0.00,,,0.00,,2013-04-03 13:02:00,
2013-04-03 09:12:00,35.0,15.0,30.36,NE,48,0.0,3.0,44,0.00,,,0.00,,2013-04-03 13:12:00,
2013-04-03 09:22:00,35.0,15.0,30.37,ENE,69,1.0,6.0,43,0.00,,,0.00,,2013-04-03 13:22:00,
2013-04-03 09:32:00,35.0,13.0,30.37,East,92,6.0,9.0,39,0.00,,,0.00,,2013-04-03 13:32:00,
2013-04-03 09:42:00,35.0,13.0,30.37,East,92,6.0,9.0,39,0.00,,,0.00,,2013-04-03 13:42:00,
2013-04-03 09:52:00,36.0,12.0,30.38,ENE,69,5.0,13.0,36,0.00,,,0.00,,2013-04-03 13:52:00,
2013-04-03 10:02:00,37.0,13.0,30.38,NE,47,4.0,10.0,37,0.00,,,0.00,,2013-04-03 14:02:00,
2013-04-03 10:12:00,37.0,13.0,30.38,NE,47,4.0,10.0,37,0.00,,,0.00,,2013-04-03 14:12:00,
2013-04-03 10:22:00,37.0,13.0,30.38,East,101,6.0,14.0,36,0.00,,,0.00,,2013-04-03 14:22:00,
2013-04-03 10:32:00,38.0,13.0,30.38,SSW,197,6.0,12.0,36,0.00,,,0.00,,2013-04-03 14:32:00,
2013-04-03 10:42:00,38.0,13.0,30.38,SSW,197,6.0,12.0,36,0.00,,,0.00,,2013-04-03 14:42:00,
2013-04-03 10:52:00,38.0,12.0,30.39,ENE,71,5.0,15.0,34,0.00,,,0.00,,2013-04-03 14:52:00,
2013-04-03 11:02:00,39.0,12.0,30.39,ENE,78,7.0,14.0,33,0.00,,,0.00,,2013-04-03 15:02:00,
2013-04-03 11:12:00,39.0,12.0,30.39,ENE,78,7.0,14.0,33,0.00,,,0.00,,2013-04-03 15:12:00,
2013-04-03 11:23:00,40.0,14.0,30.38,NNE,16,5.0,13.0,34,0.00,,,0.00,,2013-04-03 15:23:00,
2013-04-03 11:33:00,41.0,14.0,30.38,ENE,68,3.0,4.0,33,0.00,,,0.00,,2013-04-03 15:33:00,
2013-04-03 11:42:00,41.0,14.0,30.38,ENE,68,3.0,4.0,33,0.00,,,0.00,,2013-04-03 15:42:00,
2013-04-03 11:53:00,42.0,15.0,30.38,ESE,119,2.0,7.0,33,0.00,,,0.00,,2013-04-03 15:53:00,
2013-04-03 12:03:00,43.0,14.0,30.38,East,84,3.0,11.0,31,0.00,,,0.00,,2013-04-03 16:03:00,
2013-04-03 12:12:00,43.0,14.0,30.38,East,84,3.0,11.0,31,0.00,,,0.00,,2013-04-03 16:12:00,
2013-04-03 12:24:00,43.0,14.0,30.38,ESE,118,3.0,8.0,31,0.00,,,0.00,,2013-04-03 16:24:00,
2013-04-03 12:32:00,43.0,14.0,30.37,West,276,4.0,11.0,31,0.00,,,0.00,,2013-04-03 16:32:00,
2013-04-03 12:43:00,43.0,14.0,30.37,West,276,4.0,11.0,31,0.00,,,0.00,,2013-04-03 16:43:00,
2013-04-03 12:52:00,44.0,14.0,30.37,NNE,21,3.0,8.0,29,0.00,,,0.00,,2013-04-03 16:52:00,
2013-04-03 13:02:00,45.0,16.0,30.37,East,85,4.0,8.0,31,0.00,,,0.00,,2013-04-03 17:02:00,
2013-04-03 13:13:00,45.0,16.0,30.37,East,85,4.0,8.0,31,0.00,,,0.00,,2013-04-03 17:13:00,
2013-04-03 13:23:00,45.0,15.0,30.37,SSE,154,2.0,5.0,30,0.00,,,0.00,,2013-04-03 17:23:00,
2013-04-03 13:33:00,45.0,15.0,30.37,NNE,33,4.0,8.0,30,0.00,,,0.00,,2013-04-03 17:33:00,
2013-04-03 13:45:00,45.0,15.0,30.37,NNE,33,4.0,8.0,30,0.00,,,0.00,,2013-04-03 17:45:00,
2013-04-03 13:54:00,46.0,16.0,30.36,NNE,15,3.0,9.0,30,0.00,,,0.00,,2013-04-03 17:54:00,
2013-04-03 14:02:00,46.0,16.0,30.34,NW,318,5.0,11.0,29,0.00,,,0.00,,2013-04-03 18:02:00,
2013-04-03 14:12:00,46.0,16.0,30.34,NW,318,5.0,11.0,29,0.00,,,0.00,,2013-04-03 18:12:00,
2013-04-03 14:22:00,46.0,16.0,30.33,North,355,6.0,11.0,29,0.00,,,0.00,,2013-04-03 18:22:00,
2013-04-03 14:33:00,46.0,16.0,30.34,North,10,6.0,14.0,29,0.00,,,0.00,,2013-04-03 18:33:00,
2013-04-03 14:42:00,46.0,16.0,30.34,North,10,6.0,14.0,29,0.00,,,0.00,,2013-04-03 18:42:00,
2013-04-03 14:52:00,47.0,16.0,30.34,NE,37,4.0,15.0,28,0.00,,,0.00,,2013-04-03 18:52:00,
2013-04-03 15:02:00,47.0,16.0,30.33,NNE,30,6.0,15.0,28,0.00,,,0.00,,2013-04-03 19:02:00,
2013-04-03 15:12:00,47.0,16.0,30.33,NNE,30,6.0,15.0,28,0.00,,,0.00,,2013-04-03 19:12:00,
2013-04-03 15:22:00,47.0,15.0,30.33,SE,125,4.0,14.0,27,0.00,,,0.00,,2013-04-03 19:22:00,
2013-04-03 15:32:00,47.0,16.0,30.33,WNW,296,5.0,14.0,28,0.00,,,0.00,,2013-04-03 19:32:00,
2013-04-03 15:42:00,47.0,16.0,30.33,WNW,296,5.0,14.0,28,0.00,,,0.00,,2013-04-03 19:42:00,
2013-04-03 15:52:00,48.0,15.0,30.32,NNW,332,4.0,8.0,26,0.00,,,0.00,,2013-04-03 19:52:00,
2013-04-03 16:02:00,48.0,16.0,30.33,East,85,4.0,11.0,27,0.00,,,0.00,,2013-04-03 20:02:00,
2013-04-03 16:12:00,48.0,16.0,30.33,East,85,4.0,11.0,27,0.00,,,0.00,,2013-04-03 20:12:00,
2013-04-03 16:22:00,48.0,15.0,30.32,SSW,206,4.0,11.0,26,0.00,,,0.00,,2013-04-03 20:22:00,
2013-04-03 16:32:00,47.0,16.0,30.32,WNW,296,6.0,9.0,28,0.00,,,0.00,,2013-04-03 20:32:00,
2013-04-03 16:42:00,47.0,16.0,30.32,WNW,296,6.0,9.0,28,0.00,,,0.00,,2013-04-03 20:42:00,
2013-04-03 16:53:00,49.0,16.0,30.32,WNW,299,3.0,9.0,26,0.00,,,0.00,,2013-04-03 20:53:00,
2013-04-03 17:02:00,49.0,16.0,30.32,NW,315,4.0,10.0,26,0.00,,,0.00,,2013-04-03 21:02:00,
2013-04-03 17:12:00,49.0,16.0,30.32,NW,315,4.0,10.0,26,0.00,,,0.00,,2013-04-03 21:12:00,
2013-04-03 17:22:00,50.0,15.0,30.32,ENE,76,4.0,11.0,24,0.00,,,0.00,,2013-04-03 21:22:00,
2013-04-03 17:32:00,49.0,16.0,30.32,NNW,346,4.0,6.0,26,0.00,,,0.00,,2013-04-03 21:32:00,
2013-04-03 17:42:00,49.0,16.0,30.32,NNW,346,4.0,6.0,26,0.00,,,0.00,,2013-04-03 21:42:00,
2013-04-03 17:52:00,49.0,16.0,30.31,West,280,6.0,9.0,27,0.00,,,0.00,,2013-04-03 21:52:00,
2013-04-03 18:02:00,49.0,15.0,30.31,NE,51,3.0,9.0,25,0.00,,,0.00,,2013-04-03 22:02:00,
2013-04-03 18:12:00,49.0,15.0,30.31,NE,51,3.0,9.0,25,0.00,,,0.00,,2013-04-03 22:12:00,
2013-04-03 18:22:00,48.0,15.0,30.31,East,98,4.0,6.0,26,0.00,,,0.00,,2013-04-03 22:22:00,
2013-04-03 18:32:00,48.0,14.0,30.30,East,80,8.0,17.0,25,0.00,,,0.00,,2013-04-03 22:32:00,
2013-04-03 18:42:00,48.0,14.0,30.30,East,80,8.0,17.0,25,0.00,,,0.00,,2013-04-03 22:42:00,
2013-04-03 18:52:00,48.0,15.0,30.29,SSW,212,4.0,10.0,26,0.00,,,0.00,,2013-04-03 22:52:00,
2013-04-03 19:02:00,47.0,14.0,30.29,ESE,116,8.0,15.0,26,0.00,,,0.00,,2013-04-03 23:02:00,
2013-04-03 19:12:00,47.0,14.0,30.29,ESE,116,8.0,15.0,26,0.00,,,0.00,,2013-04-03 23:12:00,
2013-04-03 19:22:00,47.0,15.0,30.28,ENE,71,5.0,11.0,27,0.00,,,0.00,,2013-04-03 23:22:00,
2013-04-03 19:32:00,47.0,15.0,30.28,ESE,103,7.0,13.0,27,0.00,,,0.00,,2013-04-03 23:32:00,
2013-04-03 19:42:00,47.0,15.0,30.28,ESE,103,7.0,13.0,27,0.00,,,0.00,,2013-04-03 23:42:00,
2013-04-03 19:54:00,47.0,15.0,30.28,East,81,5.0,10.0,27,0.00,,,0.00,,2013-04-03 23:54:00,
2013-04-03 20:02:00,46.0,14.0,30.28,East,80,6.0,16.0,27,0.00,,,0.00,,2013-04-04 00:02:00,
2013-04-03 20:12:00,46.0,14.0,30.28,East,80,6.0,16.0,27,0.00,,,0.00,,2013-04-04 00:12:00,
2013-04-03 20:22:00,46.0,14.0,30.28,NNE,32,4.0,10.0,27,0.00,,,0.00,,2013-04-04 00:22:00,
2013-04-03 20:32:00,45.0,14.0,30.28,ENE,67,2.0,6.0,28,0.00,,,0.00,,2013-04-04 00:32:00,
2013-04-03 20:43:00,45.0,14.0,30.28,ENE,67,2.0,6.0,28,0.00,,,0.00,,2013-04-04 00:43:00,
2013-04-03 20:52:00,45.0,15.0,30.27,ENE,58,0.0,1.0,29,0.00,,,0.00,,2013-04-04 00:52:00,
2013-04-03 21:02:00,45.0,16.0,30.27,NNW,344,1.0,4.0,31,0.00,,,0.00,,2013-04-04 01:02:00,
2013-04-03 21:12:00,45.0,16.0,30.27,NNW,344,1.0,4.0,31,0.00,,,0.00,,2013-04-04 01:12:00,
2013-04-03 21:22:00,44.0,15.0,30.27,NE,40,1.0,2.0,31,0.00,,,0.00,,2013-04-04 01:22:00,
2013-04-03 21:32:00,44.0,16.0,30.27,North,0,1.0,3.0,32,0.00,,,0.00,,2013-04-04 01:32:00,
2013-04-03 21:43:00,44.0,16.0,30.27,North,0,1.0,3.0,32,0.00,,,0.00,,2013-04-04 01:43:00,
2013-04-03 21:52:00,43.0,14.0,30.27,ENE,70,0.0,1.0,31,0.00,,,0.00,,2013-04-04 01:52:00,
2013-04-03 22:02:00,43.0,15.0,30.27,East,83,0.0,1.0,32,0.00,,,0.00,,2013-04-04 02:02:00,
2013-04-03 22:12:00,43.0,15.0,30.27,East,83,0.0,1.0,32,0.00,,,0.00,,2013-04-04 02:12:00,
2013-04-03 22:22:00,43.0,15.0,30.28,NE,51,0.0,2.0,32,0.00,,,0.00,,2013-04-04 02:22:00,
2013-04-03 22:32:00,43.0,15.0,30.29,NNW,346,0.0,2.0,32,0.00,,,0.00,,2013-04-04 02:32:00,
2013-04-03 22:42:00,43.0,15.0,30.29,NNW,346,0.0,2.0,32,0.00,,,0.00,,2013-04-04 02:42:00,
2013-04-03 22:52:00,43.0,15.0,30.29,NNW,346,0.0,2.0,32,0.00,,,0.00,,2013-04-04 02:52:00,
2013-04-03 23:02:00,42.0,15.0,30.30,NE,40,0.0,1.0,33,0.00,,,0.00,,2013-04-04 03:02:00,
2013-04-03 23:12:00,42.0,15.0,30.30,NE,40,0.0,1.0,33,0.00,,,0.00,,2013-04-04 03:12:00,
2013-04-03 23:22:00,41.0,15.0,30.30,NE,55,0.0,2.0,34,0.00,,,0.00,,2013-04-04 03:22:00,
2013-04-03 23:33:00,41.0,15.0,30.30,NE,42,0.0,2.0,35,0.00,,,0.00,,2013-04-04 03:33:00,
2013-04-03 23:43:00,41.0,15.0,30.30,NE,42,0.0,2.0,35,0.00,,,0.00,,2013-04-04 03:43:00,
2013-04-03 23:53:00,41.0,15.0,30.30,ENE,62,1.0,4.0,35,0.00,,,0.00,,2013-04-04 03:53:00,